#timestamp,LO_Frequency,Hit,StdDev 
1543129215.3,286047008.5,N
1543129235.1,286047010.1,N
1543129255.9,286047011.0,N
1543129275.7,286047013.0,N
1543129295.5,286047014.9,N
1543129315.4,286047014.7,N
1543129335.2,286047016.4,N
1543129355.1,286047016.3,N
1543129356.0,286047016.3,N
1543129375.8,286047018.1,N
1543129395.6,286047018.2,N
1543129415.5,286047017.8,N
1543129435.3,286047018.5,N
1543129455.1,286047020.4,N
1543129475.9,286047019.6,N
1543129495.7,286047018.9,N
1543129515.6,286047021.4,N
1543129535.4,286047020.8,N
1543129555.2,286047020.0,N
1543129575.1,286047016.9,N
1543129576.0,286047016.9,N
1543129595.8,286047014.3,N
1543129615.6,286047015.1,N
1543129635.5,286047014.9,N
1543129655.3,286047013.9,N
1543129675.2,286047009.0,N
1543129695.9,286047007.6,N
1543129715.7,286047003.7,N
1543129735.6,286047000.6,N
1543129755.4,286046997.2,N
1543129775.2,286046995.2,N
1543129795.1,286046998.0,N
1543129796.0,286046998.0,N
1543129815.8,286046993.5,N
1543129835.7,286046994.8,N
1543129855.5,286046995.7,N
1543129875.3,286046993.3,N
1543129895.2,286046996.0,N
1543129915.9,286046998.0,N
1543129935.7,286046995.3,N
1543129955.6,286046999.3,N
1543129975.4,286047000.7,N
1543129995.2,286047000.7,N
1543130015.1,286047000.6,N
1543130016.0,286047000.6,N
1543130035.8,286047002.3,N
1543130055.7,286047003.2,N
1543130075.5,286047007.1,N
1543130095.3,286047008.1,N
1543130115.2,286047011.8,N
1543130135.0,286047012.6,N
1543130135.9,286047012.6,N
1543130155.7,286047013.2,N
1543130175.6,286047017.2,N
1543130195.4,286047016.4,N
1543130215.3,286047016.0,N
1543130235.1,286047017.6,N
1543130236.0,286047017.6,N
1543130255.8,286047023.5,N
1543130275.7,286047021.3,N
1543130295.5,286047019.5,N
1543130315.3,286047021.5,N
1543130335.2,286047022.2,N
1543130355.0,286047026.7,N
1543130355.9,286047026.7,N
1543130375.8,286047026.3,N
1543130395.6,286047026.0,N
1543130415.4,286047028.3,N
1543130435.3,286047029.6,N
1543130455.1,286047027.7,N
1543130475.9,286047029.6,Y
1543130495.7,286047015.2,P
1543130515.5,286047015.5,P
1543130535.4,286047015.2,P
1543130555.2,286047016.5,Y
1543130575.0,286047002.5,P
1543130575.9,286047002.5,N
1543130595.8,286047002.4,N
1543130615.6,286047002.1,N
1543130635.5,286047002.6,N
1543130655.3,286046998.1,N
1543130675.1,286046999.2,N
1543130695.9,286046997.3,N
1543130715.7,286046997.0,N
1543130735.5,286046998.7,N
1543130755.4,286046995.5,N
1543130775.2,286046997.7,N
1543130795.1,286046997.8,N
1543130796.0,286046997.8,N
1543130815.8,286046996.9,N
1543130835.6,286046996.5,N
1543130855.5,286046996.4,N
1543130875.3,286046992.7,N
1543130895.1,286046987.3,N
1543130915.9,286046988.2,N
1543130935.7,286046986.9,N
1543130955.6,286046989.5,N
1543130975.4,286046987.2,N
1543130995.2,286046988.7,N
1543131015.1,286046990.3,N
1543131016.0,286046990.3,N
1543131035.8,286046994.4,N
1543131055.6,286046994.0,N
1543131075.5,286046996.0,N
1543131095.3,286046994.4,N
1543131115.2,286046990.4,N
1543131135.9,286046987.7,N
1543131155.7,286046984.0,Y
1543131175.6,286046991.0,P
1543131195.4,286046989.4,P
1543131215.2,286046986.9,P
1543131235.1,286046982.2,Y
1543131236.0,286046982.2,P
1543131255.8,286046988.5,N
1543131275.7,286046994.7,N
1543131295.5,286046994.1,N
1543131315.3,286046994.1,N
1543131335.2,286046993.2,N
1543131355.0,286046988.8,N
1543131355.9,286046988.8,N
1543131375.8,286046987.9,Y
1543131395.6,286046996.4,P
1543131415.4,286046994.5,N
1543131435.3,286046995.8,N
1543131455.1,286046997.9,N
1543131456.0,286046997.9,N
1543131475.8,286046999.7,N
1543131495.7,286047001.4,N
1543131515.5,286047000.5,N
1543131535.3,286046999.4,N
1543131555.2,286046999.6,N
1543131575.0,286047000.7,N
1543131575.9,286047000.7,N
1543131595.8,286047001.4,N
1543131615.6,286047001.4,N
1543131635.4,286047002.6,N
1543131655.3,286047001.5,N
1543131675.1,286047004.1,N
1543131695.8,286047004.1,N
1543131715.7,286047007.2,N
1543131735.5,286047008.7,N
1543131755.4,286047008.5,N
1543131775.2,286047006.9,N
1543131795.0,286047002.9,N
1543131795.9,286047002.9,N
1543131815.8,286047003.8,N
1543131835.6,286047003.8,N
1543131855.4,286047002.1,N
1543131875.3,286047002.3,N
1543131895.1,286047001.6,N
1543131915.9,286047003.8,N
1543131935.7,286047004.4,N
1543131955.5,286047000.2,N
1543131975.4,286047000.0,N
1543131995.2,286047001.1,N
1543132015.0,286046997.3,N
1543132015.9,286046997.3,N
1543132035.8,286046997.8,N
1543132055.6,286046999.6,N
1543132075.5,286047000.5,N
1543132095.3,286047002.4,N
1543132115.1,286047000.1,N
1543132135.9,286047000.8,N
1543132155.7,286046998.9,N
1543132175.5,286047000.5,N
1543132195.4,286046998.1,N
1543132215.2,286046998.1,N
1543132235.1,286046999.0,N
1543132236.0,286046999.0,N
1543132255.8,286046998.1,N
1543132275.6,286047000.1,N
1543132295.5,286047001.7,N
1543132315.3,286047001.2,N
1543132335.1,286046999.5,N
1543132355.9,286046999.4,N
1543132375.7,286047000.3,N
1543132395.5,286047002.3,N
1543132415.4,286046999.7,N
1543132435.2,286047000.1,N
1543132455.1,286046999.8,N
1543132456.0,286046999.8,N
1543132475.8,286047002.4,N
1543132495.6,286046998.5,N
1543132515.5,286046997.0,N
1543132535.3,286046996.1,N
1543132555.1,286046992.5,Y
1543132575.9,286046993.0,P
1543132595.7,286046989.7,P
1543132615.6,286046985.3,P
1543132635.4,286046986.0,N
1543132655.2,286046983.5,Y
1543132675.1,286046989.5,P
1543132676.0,286046989.5,P
1543132695.8,286046985.3,P
1543132715.7,286046986.3,Y
1543132735.5,286046997.6,P
1543132755.3,286046994.4,N
1543132775.2,286046992.5,N
1543132795.9,286046996.1,N
